owner,sensor,date,latitude,longitude,vertical_datum,wind_speed,wind_to_direction,wind_speed_of_gust,qcFlag 
DISL,ioos:station:DISL:KATA:1,2013-04-01T00:00:00Z,30.2583,-88.2131,0.0,5.14,194.2,-9999.0,'1111122,1111122,1111122' 
DISL,ioos:station:DISL:KATA:1,2013-04-01T00:30:00Z,30.2583,-88.2131,0.0,6.27,213.5,-9999.0,'1111122,1111122,1111122' 
DISL,ioos:station:DISL:KATA:1,2013-04-01T01:00:00Z,30.2583,-88.2131,0.0,7.2,325.5,-9999.0,'1111122,1111122,1111122' 
DISL,ioos:station:DISL:KATA:1,2013-04-01T01:30:00Z,30.2583,-88.2131,0.0,2.24,14.85,-9999.0,'1111122,1111122,1111122' 
DISL,ioos:station:DISL:KATA:1,2013-04-01T02:00:00Z,30.2583,-88.2131,0.0,6.36,123.6,-9999.0,'1111122,1111122,1111122' 
DISL,ioos:station:DISL:KATA:1,2013-04-01T02:30:00Z,30.2583,-88.2131,0.0,5.13,127.8,-9999.0,'1111122,1111122,1111122' 
DISL,ioos:station:DISL:KATA:1,2013-04-01T03:00:00Z,30.2583,-88.2131,0.0,3.82,153.4,-9999.0,'1111122,1111122,1111122' 
DISL,ioos:station:DISL:KATA:1,2013-04-01T03:30:00Z,30.2583,-88.2131,0.0,3.87,168.2,-9999.0,'1111122,1111122,1111122' 
DISL,ioos:station:DISL:KATA:1,2013-04-01T04:00:00Z,30.2583,-88.2131,0.0,4.05,172.6,-9999.0,'1111122,1111122,1111122' 
DISL,ioos:station:DISL:KATA:1,2013-04-01T04:30:00Z,30.2583,-88.2131,0.0,3.87,187.5,-9999.0,'1111122,1111122,1111122' 
DISL,ioos:station:DISL:KATA:1,2013-04-01T05:00:00Z,30.2583,-88.2131,0.0,3.99,205.9,-9999.0,'1111122,1111122,1111122' 
DISL,ioos:station:DISL:KATA:1,2013-04-01T05:30:00Z,30.2583,-88.2131,0.0,3.87,215.8,-9999.0,'1111122,1111122,1111122' 
DISL,ioos:station:DISL:KATA:1,2013-04-01T06:00:00Z,30.2583,-88.2131,0.0,3.99,234.1,-9999.0,'1111122,1111122,1111122' 
DISL,ioos:station:DISL:KATA:1,2013-04-01T06:30:00Z,30.2583,-88.2131,0.0,5.52,293.0,-9999.0,'1111122,1111122,1111122' 
DISL,ioos:station:DISL:KATA:1,2013-04-01T07:00:00Z,30.2583,-88.2131,0.0,5.56,328.0,-9999.0,'1111122,1111122,1111122' 
DISL,ioos:station:DISL:KATA:1,2013-04-01T07:30:00Z,30.2583,-88.2131,0.0,3.99,315.0,-9999.0,'1111122,1111122,1111122' 
DISL,ioos:station:DISL:KATA:1,2013-04-01T08:00:00Z,30.2583,-88.2131,0.0,2.11,279.7,-9999.0,'1111122,1111122,1111122' 
DISL,ioos:station:DISL:KATA:1,2013-04-01T08:30:00Z,30.2583,-88.2131,0.0,2.62,310.0,-9999.0,'1111122,1111122,1111122' 
DISL,ioos:station:DISL:KATA:1,2013-04-01T09:00:00Z,30.2583,-88.2131,0.0,2.83,328.6,-9999.0,'1111122,1111122,1111122' 
DISL,ioos:station:DISL:KATA:1,2013-04-01T09:30:00Z,30.2583,-88.2131,0.0,3.85,316.1,-9999.0,'1111122,1111122,1111122' 
DISL,ioos:station:DISL:KATA:1,2013-04-01T10:00:00Z,30.2583,-88.2131,0.0,4.07,310.6,-9999.0,'1111122,1111122,1111122' 
DISL,ioos:station:DISL:KATA:1,2013-04-01T10:30:00Z,30.2583,-88.2131,0.0,5.02,307.7,-9999.0,'1111122,1111122,1111122' 
DISL,ioos:station:DISL:KATA:1,2013-04-01T11:00:00Z,30.2583,-88.2131,0.0,4.8,303.3,-9999.0,'1111122,1111122,1111122' 
DISL,ioos:station:DISL:KATA:1,2013-04-01T11:30:00Z,30.2583,-88.2131,0.0,5.19,312.7,-9999.0,'1111122,1111122,1111122' 
DISL,ioos:station:DISL:KATA:1,2013-04-01T12:00:00Z,30.2583,-88.2131,0.0,5.54,308.6,-9999.0,'1111122,1111122,1111122' 
DISL,ioos:station:DISL:KATA:1,2013-04-01T12:30:00Z,30.2583,-88.2131,0.0,5.06,312.9,-9999.0,'1111122,1111122,1111122' 
DISL,ioos:station:DISL:KATA:1,2013-04-01T13:00:00Z,30.2583,-88.2131,0.0,6.2,322.0,-9999.0,'1111122,1111122,1111122' 
DISL,ioos:station:DISL:KATA:1,2013-04-01T13:30:00Z,30.2583,-88.2131,0.0,4.88,313.4,-9999.0,'1111122,1111122,1111122' 
DISL,ioos:station:DISL:KATA:1,2013-04-01T14:00:00Z,30.2583,-88.2131,0.0,5.78,325.0,-9999.0,'1111122,1111122,1111122' 
DISL,ioos:station:DISL:KATA:1,2013-04-01T14:30:00Z,30.2583,-88.2131,0.0,5.36,341.8,-9999.0,'1111122,1111122,1111122' 
DISL,ioos:station:DISL:KATA:1,2013-04-01T15:00:00Z,30.2583,-88.2131,0.0,3.84,351.1,-9999.0,'1111122,1111122,1111122' 
DISL,ioos:station:DISL:KATA:1,2013-04-01T15:30:00Z,30.2583,-88.2131,0.0,3.8,342.3,-9999.0,'1111122,1111122,1111122' 
DISL,ioos:station:DISL:KATA:1,2013-04-01T16:00:00Z,30.2583,-88.2131,0.0,3.3,341.1,-9999.0,'1111122,1111122,1111122' 
DISL,ioos:station:DISL:KATA:1,2013-04-01T16:30:00Z,30.2583,-88.2131,0.0,3.7,335.3,-9999.0,'1111122,1111122,1111122' 
DISL,ioos:station:DISL:KATA:1,2013-04-01T17:00:00Z,30.2583,-88.2131,0.0,3.71,347.3,-9999.0,'1111122,1111122,1111122' 
DISL,ioos:station:DISL:KATA:1,2013-04-01T17:30:00Z,30.2583,-88.2131,0.0,4.45,340.8,-9999.0,'1111122,1111122,1111122' 
DISL,ioos:station:DISL:KATA:1,2013-04-01T18:00:00Z,30.2583,-88.2131,0.0,3.23,359.4,-9999.0,'1111122,1111122,1111122' 
DISL,ioos:station:DISL:KATA:1,2013-04-01T18:30:00Z,30.2583,-88.2131,0.0,3.54,345.2,-9999.0,'1111122,1111122,1111122' 
DISL,ioos:station:DISL:KATA:1,2013-04-01T19:00:00Z,30.2583,-88.2131,0.0,2.96,353.7,-9999.0,'1111122,1111122,1111122' 
DISL,ioos:station:DISL:KATA:1,2013-04-01T19:30:00Z,30.2583,-88.2131,0.0,2.8,347.8,-9999.0,'1111122,1111122,1111122' 
DISL,ioos:station:DISL:KATA:1,2013-04-01T20:00:00Z,30.2583,-88.2131,0.0,4.03,63.72,-9999.0,'1111122,1111122,1111122' 
DISL,ioos:station:DISL:KATA:1,2013-04-01T20:30:00Z,30.2583,-88.2131,0.0,4.54,69.55,-9999.0,'1111122,1111122,1111122' 
DISL,ioos:station:DISL:KATA:1,2013-04-01T21:00:00Z,30.2583,-88.2131,0.0,5.1,68.1,-9999.0,'1111122,1111122,1111122' 
DISL,ioos:station:DISL:KATA:1,2013-04-01T21:30:00Z,30.2583,-88.2131,0.0,4.76,73.9,-9999.0,'1111122,1111122,1111122' 
DISL,ioos:station:DISL:KATA:1,2013-04-01T22:00:00Z,30.2583,-88.2131,0.0,4.84,72.6,-9999.0,'1111122,1111122,1111122' 
DISL,ioos:station:DISL:KATA:1,2013-04-01T22:30:00Z,30.2583,-88.2131,0.0,4.2,75.04,-9999.0,'1111122,1111122,1111122' 
DISL,ioos:station:DISL:KATA:1,2013-04-01T23:00:00Z,30.2583,-88.2131,0.0,3.06,87.0,-9999.0,'1111122,1111122,1111122' 
DISL,ioos:station:DISL:KATA:1,2013-04-01T23:30:00Z,30.2583,-88.2131,0.0,2.86,77.75,-9999.0,'1111122,1111122,1111122' 
DISL,ioos:station:DISL:KATA:1,2013-04-02T00:00:00Z,30.2583,-88.2131,0.0,1.64,87.6,-9999.0,'1111122,1111122,1111122' 
DISL,ioos:station:DISL:KATA:1,2013-04-02T00:30:00Z,30.2583,-88.2131,0.0,3.02,57.23,-9999.0,'1111122,1111122,1111122' 
DISL,ioos:station:DISL:KATA:1,2013-04-02T01:00:00Z,30.2583,-88.2131,0.0,3.83,26.57,-9999.0,'1111122,1111122,1111122' 
DISL,ioos:station:DISL:KATA:1,2013-04-02T01:30:00Z,30.2583,-88.2131,0.0,3.6,6.661,-9999.0,'1111122,1111122,1111122' 
DISL,ioos:station:DISL:KATA:1,2013-04-02T02:00:00Z,30.2583,-88.2131,0.0,4.82,11.05,-9999.0,'1111122,1111122,1111122' 
DISL,ioos:station:DISL:KATA:1,2013-04-02T02:30:00Z,30.2583,-88.2131,0.0,4.0,14.92,-9999.0,'1111122,1111122,1111122' 
DISL,ioos:station:DISL:KATA:1,2013-04-02T03:00:00Z,30.2583,-88.2131,0.0,3.3,20.48,-9999.0,'1111122,1111122,1111122' 
DISL,ioos:station:DISL:KATA:1,2013-04-02T03:30:00Z,30.2583,-88.2131,0.0,4.21,30.3,-9999.0,'1111122,1111122,1111122' 
DISL,ioos:station:DISL:KATA:1,2013-04-02T04:00:00Z,30.2583,-88.2131,0.0,3.08,23.2,-9999.0,'1111122,1111122,1111122' 
DISL,ioos:station:DISL:KATA:1,2013-04-02T04:30:00Z,30.2583,-88.2131,0.0,2.53,29.03,-9999.0,'1111122,1111122,1111122' 
DISL,ioos:station:DISL:KATA:1,2013-04-02T05:00:00Z,30.2583,-88.2131,0.0,1.63,33.89,-9999.0,'1111122,1111122,1111122' 
DISL,ioos:station:DISL:KATA:1,2013-04-02T05:30:00Z,30.2583,-88.2131,0.0,0.09,52.91,-9999.0,'1111122,1111122,1111122' 
DISL,ioos:station:DISL:KATA:1,2013-04-02T06:00:00Z,30.2583,-88.2131,0.0,0.52,224.4,-9999.0,'1111122,1111122,1111122' 
DISL,ioos:station:DISL:KATA:1,2013-04-02T06:30:00Z,30.2583,-88.2131,0.0,1.38,232.3,-9999.0,'1111122,1111122,1111122' 
DISL,ioos:station:DISL:KATA:1,2013-04-02T07:00:00Z,30.2583,-88.2131,0.0,2.12,270.5,-9999.0,'1111122,1111122,1111122' 
DISL,ioos:station:DISL:KATA:1,2013-04-02T07:30:00Z,30.2583,-88.2131,0.0,2.2,295.3,-9999.0,'1111122,1111122,1111122' 
DISL,ioos:station:DISL:KATA:1,2013-04-02T08:00:00Z,30.2583,-88.2131,0.0,2.17,310.3,-9999.0,'1111122,1111122,1111122' 
DISL,ioos:station:DISL:KATA:1,2013-04-02T08:30:00Z,30.2583,-88.2131,0.0,2.58,307.8,-9999.0,'1111122,1111122,1111122' 
DISL,ioos:station:DISL:KATA:1,2013-04-02T09:00:00Z,30.2583,-88.2131,0.0,2.3,317.1,-9999.0,'1111122,1111122,1111122' 
DISL,ioos:station:DISL:KATA:1,2013-04-02T09:30:00Z,30.2583,-88.2131,0.0,3.31,6.226,-9999.0,'1111122,1111122,1111122' 
DISL,ioos:station:DISL:KATA:1,2013-04-02T10:00:00Z,30.2583,-88.2131,0.0,2.96,13.49,-9999.0,'1111122,1111122,1111122' 
DISL,ioos:station:DISL:KATA:1,2013-04-02T10:30:00Z,30.2583,-88.2131,0.0,1.87,37.76,-9999.0,'1111122,1111122,1111122' 
DISL,ioos:station:DISL:KATA:1,2013-04-02T11:00:00Z,30.2583,-88.2131,0.0,3.36,47.81,-9999.0,'1111122,1111122,1111122' 
DISL,ioos:station:DISL:KATA:1,2013-04-02T11:30:00Z,30.2583,-88.2131,0.0,4.92,44.19,-9999.0,'1111122,1111122,1111122' 
DISL,ioos:station:DISL:KATA:1,2013-04-02T12:00:00Z,30.2583,-88.2131,0.0,4.74,40.02,-9999.0,'1111122,1111122,1111122' 
DISL,ioos:station:DISL:KATA:1,2013-04-02T12:30:00Z,30.2583,-88.2131,0.0,4.88,39.18,-9999.0,'1111122,1111122,1111122' 
DISL,ioos:station:DISL:KATA:1,2013-04-02T13:00:00Z,30.2583,-88.2131,0.0,3.68,41.21,-9999.0,'1111122,1111122,1111122' 
DISL,ioos:station:DISL:KATA:1,2013-04-02T13:30:00Z,30.2583,-88.2131,0.0,2.04,53.67,-9999.0,'1111122,1111122,1111122' 
DISL,ioos:station:DISL:KATA:1,2013-04-02T14:00:00Z,30.2583,-88.2131,0.0,2.73,34.28,-9999.0,'1111122,1111122,1111122' 
DISL,ioos:station:DISL:KATA:1,2013-04-02T14:30:00Z,30.2583,-88.2131,0.0,4.78,52.11,-9999.0,'1111122,1111122,1111122' 
DISL,ioos:station:DISL:KATA:1,2013-04-02T15:00:00Z,30.2583,-88.2131,0.0,4.35,64.23,-9999.0,'1111122,1111122,1111122' 
DISL,ioos:station:DISL:KATA:1,2013-04-02T15:30:00Z,30.2583,-88.2131,0.0,5.06,78.62,-9999.0,'1111122,1111122,1111122' 
DISL,ioos:station:DISL:KATA:1,2013-04-02T16:00:00Z,30.2583,-88.2131,0.0,4.26,77.24,-9999.0,'1111122,1111122,1111122' 
DISL,ioos:station:DISL:KATA:1,2013-04-02T16:30:00Z,30.2583,-88.2131,0.0,3.83,87.4,-9999.0,'1111122,1111122,1111122' 
DISL,ioos:station:DISL:KATA:1,2013-04-02T17:00:00Z,30.2583,-88.2131,0.0,6.57,112.7,-9999.0,'1111122,1111122,1111122' 
DISL,ioos:station:DISL:KATA:1,2013-04-02T17:30:00Z,30.2583,-88.2131,0.0,4.8,107.7,-9999.0,'1111122,1111122,1111122' 
DISL,ioos:station:DISL:KATA:1,2013-04-02T18:00:00Z,30.2583,-88.2131,0.0,5.36,109.5,-9999.0,'1111122,1111122,1111122' 
DISL,ioos:station:DISL:KATA:1,2013-04-02T18:30:00Z,30.2583,-88.2131,0.0,5.23,120.3,-9999.0,'1111122,1111122,1111122' 
DISL,ioos:station:DISL:KATA:1,2013-04-02T19:00:00Z,30.2583,-88.2131,0.0,4.88,116.2,-9999.0,'1111122,1111122,1111122' 
DISL,ioos:station:DISL:KATA:1,2013-04-02T19:30:00Z,30.2583,-88.2131,0.0,4.62,117.4,-9999.0,'1111122,1111122,1111122' 
DISL,ioos:station:DISL:KATA:1,2013-04-02T20:00:00Z,30.2583,-88.2131,0.0,4.35,122.8,-9999.0,'1111122,1111122,1111122' 
DISL,ioos:station:DISL:KATA:1,2013-04-02T20:30:00Z,30.2583,-88.2131,0.0,4.49,116.8,-9999.0,'1111122,1111122,1111122' 
DISL,ioos:station:DISL:KATA:1,2013-04-02T21:00:00Z,30.2583,-88.2131,0.0,3.9,117.7,-9999.0,'1111122,1111122,1111122' 
DISL,ioos:station:DISL:KATA:1,2013-04-02T21:30:00Z,30.2583,-88.2131,0.0,3.33,123.0,-9999.0,'1111122,1111122,1111122' 
DISL,ioos:station:DISL:KATA:1,2013-04-02T22:00:00Z,30.2583,-88.2131,0.0,3.71,117.3,-9999.0,'1111122,1111122,1111122' 
DISL,ioos:station:DISL:KATA:1,2013-04-02T22:30:00Z,30.2583,-88.2131,0.0,4.51,117.6,-9999.0,'1111122,1111122,1111122' 
DISL,ioos:station:DISL:KATA:1,2013-04-02T23:00:00Z,30.2583,-88.2131,0.0,4.9,117.0,-9999.0,'1111122,1111122,1111122' 
DISL,ioos:station:DISL:KATA:1,2013-04-02T23:30:00Z,30.2583,-88.2131,0.0,5.53,112.7,-9999.0,'1111122,1111122,1111122' 
DISL,ioos:station:DISL:KATA:1,2013-04-03T00:00:00Z,30.2583,-88.2131,0.0,5.4,114.2,-9999.0,'1111122,1111122,1111122' 
DISL,ioos:station:DISL:KATA:1,2013-04-03T00:30:00Z,30.2583,-88.2131,0.0,5.73,113.9,-9999.0,'1111122,1111122,1111122' 
DISL,ioos:station:DISL:KATA:1,2013-04-03T01:00:00Z,30.2583,-88.2131,0.0,5.33,98.4,-9999.0,'1111122,1111122,1111122' 
DISL,ioos:station:DISL:KATA:1,2013-04-03T01:30:00Z,30.2583,-88.2131,0.0,5.02,103.5,-9999.0,'1111122,1111122,1111122' 
DISL,ioos:station:DISL:KATA:1,2013-04-03T02:00:00Z,30.2583,-88.2131,0.0,5.08,114.2,-9999.0,'1111122,1111122,1111122' 
DISL,ioos:station:DISL:KATA:1,2013-04-03T02:30:00Z,30.2583,-88.2131,0.0,6.1,105.9,-9999.0,'1111122,1111122,1111122' 
DISL,ioos:station:DISL:KATA:1,2013-04-03T03:00:00Z,30.2583,-88.2131,0.0,5.85,99.6,-9999.0,'1111122,1111122,1111122' 
DISL,ioos:station:DISL:KATA:1,2013-04-03T03:30:00Z,30.2583,-88.2131,0.0,5.23,108.0,-9999.0,'1111122,1111122,1111122' 
DISL,ioos:station:DISL:KATA:1,2013-04-03T04:00:00Z,30.2583,-88.2131,0.0,5.03,107.4,-9999.0,'1111122,1111122,1111122' 
DISL,ioos:station:DISL:KATA:1,2013-04-03T04:30:00Z,30.2583,-88.2131,0.0,5.3,106.7,-9999.0,'1111122,1111122,1111122' 
DISL,ioos:station:DISL:KATA:1,2013-04-03T05:00:00Z,30.2583,-88.2131,0.0,4.73,94.3,-9999.0,'1111122,1111122,1111122' 
DISL,ioos:station:DISL:KATA:1,2013-04-03T05:30:00Z,30.2583,-88.2131,0.0,4.78,88.8,-9999.0,'1111122,1111122,1111122' 
DISL,ioos:station:DISL:KATA:1,2013-04-03T06:00:00Z,30.2583,-88.2131,0.0,5.37,83.4,-9999.0,'1111122,1111122,1111122' 
DISL,ioos:station:DISL:KATA:1,2013-04-03T06:30:00Z,30.2583,-88.2131,0.0,6.7,80.8,-9999.0,'1111122,1111122,1111122' 
DISL,ioos:station:DISL:KATA:1,2013-04-03T07:00:00Z,30.2583,-88.2131,0.0,5.53,100.6,-9999.0,'1111122,1111122,1111122' 
DISL,ioos:station:DISL:KATA:1,2013-04-03T07:30:00Z,30.2583,-88.2131,0.0,7.05,67.85,-9999.0,'1111122,1111122,1111122' 
DISL,ioos:station:DISL:KATA:1,2013-04-03T08:00:00Z,30.2583,-88.2131,0.0,6.18,95.5,-9999.0,'1111122,1111122,1111122' 
DISL,ioos:station:DISL:KATA:1,2013-04-03T08:30:00Z,30.2583,-88.2131,0.0,6.53,68.51,-9999.0,'1111122,1111122,1111122' 
DISL,ioos:station:DISL:KATA:1,2013-04-03T09:00:00Z,30.2583,-88.2131,0.0,6.13,71.79,-9999.0,'1111122,1111122,1111122' 
DISL,ioos:station:DISL:KATA:1,2013-04-03T09:30:00Z,30.2583,-88.2131,0.0,6.2,77.98,-9999.0,'1111122,1111122,1111122' 
DISL,ioos:station:DISL:KATA:1,2013-04-03T10:00:00Z,30.2583,-88.2131,0.0,6.31,60.35,-9999.0,'1111122,1111122,1111122' 
DISL,ioos:station:DISL:KATA:1,2013-04-03T10:30:00Z,30.2583,-88.2131,0.0,8.13,52.74,-9999.0,'1111122,1111122,1111122' 
DISL,ioos:station:DISL:KATA:1,2013-04-03T11:00:00Z,30.2583,-88.2131,0.0,9.07,40.65,-9999.0,'1111122,1111122,1111122' 
DISL,ioos:station:DISL:KATA:1,2013-04-03T11:30:00Z,30.2583,-88.2131,0.0,9.58,39.27,-9999.0,'1111122,1111122,1111122' 
DISL,ioos:station:DISL:KATA:1,2013-04-03T12:00:00Z,30.2583,-88.2131,0.0,9.31,31.13,-9999.0,'1111122,1111122,1111122' 
DISL,ioos:station:DISL:KATA:1,2013-04-03T12:30:00Z,30.2583,-88.2131,0.0,10.88,33.24,-9999.0,'1111122,1111122,1111122' 
DISL,ioos:station:DISL:KATA:1,2013-04-03T13:00:00Z,30.2583,-88.2131,0.0,13.39,50.55,-9999.0,'1111122,1111122,1111122' 
DISL,ioos:station:DISL:KATA:1,2013-04-03T13:30:00Z,30.2583,-88.2131,0.0,12.12,55.27,-9999.0,'1111122,1111122,1111122' 
DISL,ioos:station:DISL:KATA:1,2013-04-03T14:00:00Z,30.2583,-88.2131,0.0,13.13,62.21,-9999.0,'1111122,1111122,1111122' 
DISL,ioos:station:DISL:KATA:1,2013-04-03T14:30:00Z,30.2583,-88.2131,0.0,10.94,54.8,-9999.0,'1111122,1111122,1111122' 
DISL,ioos:station:DISL:KATA:1,2013-04-03T15:00:00Z,30.2583,-88.2131,0.0,10.72,57.33,-9999.0,'1111122,1111122,1111122' 
DISL,ioos:station:DISL:KATA:1,2013-04-03T15:30:00Z,30.2583,-88.2131,0.0,11.41,58.68,-9999.0,'1111122,1111122,1111122' 
DISL,ioos:station:DISL:KATA:1,2013-04-03T16:00:00Z,30.2583,-88.2131,0.0,10.91,45.22,-9999.0,'1111122,1111122,1111122' 
DISL,ioos:station:DISL:KATA:1,2013-04-03T16:30:00Z,30.2583,-88.2131,0.0,10.6,42.26,-9999.0,'1111122,1111122,1111122' 
DISL,ioos:station:DISL:KATA:1,2013-04-03T17:00:00Z,30.2583,-88.2131,0.0,9.97,45.43,-9999.0,'1111122,1111122,1111122' 
DISL,ioos:station:DISL:KATA:1,2013-04-03T17:30:00Z,30.2583,-88.2131,0.0,10.15,55.33,-9999.0,'1111122,1111122,1111122' 
DISL,ioos:station:DISL:KATA:1,2013-04-03T18:00:00Z,30.2583,-88.2131,0.0,9.02,49.59,-9999.0,'1111122,1111122,1111122' 
DISL,ioos:station:DISL:KATA:1,2013-04-03T18:30:00Z,30.2583,-88.2131,0.0,15.22,88.8,-9999.0,'1111122,1111122,1111122' 
DISL,ioos:station:DISL:KATA:1,2013-04-03T19:00:00Z,30.2583,-88.2131,0.0,18.86,90.9,-9999.0,'1111122,1111122,1111122' 
DISL,ioos:station:DISL:KATA:1,2013-04-03T19:30:00Z,30.2583,-88.2131,0.0,16.19,85.6,-9999.0,'1111122,1111122,1111122' 
DISL,ioos:station:DISL:KATA:1,2013-04-03T20:00:00Z,30.2583,-88.2131,0.0,16.37,93.8,-9999.0,'1111122,1111122,1111122' 
DISL,ioos:station:DISL:KATA:1,2013-04-03T20:30:00Z,30.2583,-88.2131,0.0,12.48,87.4,-9999.0,'1111122,1111122,1111122' 
DISL,ioos:station:DISL:KATA:1,2013-04-03T21:00:00Z,30.2583,-88.2131,0.0,12.54,70.85,-9999.0,'1111122,1111122,1111122' 
DISL,ioos:station:DISL:KATA:1,2013-04-03T21:30:00Z,30.2583,-88.2131,0.0,9.75,62.45,-9999.0,'1111122,1111122,1111122' 
DISL,ioos:station:DISL:KATA:1,2013-04-03T22:00:00Z,30.2583,-88.2131,0.0,8.65,57.74,-9999.0,'1111122,1111122,1111122' 
DISL,ioos:station:DISL:KATA:1,2013-04-03T22:30:00Z,30.2583,-88.2131,0.0,9.45,43.3,-9999.0,'1111122,1111122,1111122' 
DISL,ioos:station:DISL:KATA:1,2013-04-03T23:00:00Z,30.2583,-88.2131,0.0,7.58,39.43,-9999.0,'1111122,1111122,1111122' 
DISL,ioos:station:DISL:KATA:1,2013-04-03T23:30:00Z,30.2583,-88.2131,0.0,9.2,32.24,-9999.0,'1111122,1111122,1111122' 
DISL,ioos:station:DISL:KATA:1,2013-04-04T00:00:00Z,30.2583,-88.2131,0.0,8.63,25.27,-9999.0,'1111122,1111122,1111122' 
DISL,ioos:station:DISL:KATA:1,2013-04-04T00:30:00Z,30.2583,-88.2131,0.0,7.67,21.24,-9999.0,'1111122,1111122,1111122' 
DISL,ioos:station:DISL:KATA:1,2013-04-04T01:00:00Z,30.2583,-88.2131,0.0,8.11,22.72,-9999.0,'1111122,1111122,1111122' 
DISL,ioos:station:DISL:KATA:1,2013-04-04T01:30:00Z,30.2583,-88.2131,0.0,8.38,22.06,-9999.0,'1111122,1111122,1111122' 
DISL,ioos:station:DISL:KATA:1,2013-04-04T02:00:00Z,30.2583,-88.2131,0.0,10.29,17.41,-9999.0,'1111122,1111122,1111122' 
DISL,ioos:station:DISL:KATA:1,2013-04-04T02:30:00Z,30.2583,-88.2131,0.0,10.44,19.57,-9999.0,'1111122,1111122,1111122' 
DISL,ioos:station:DISL:KATA:1,2013-04-04T03:00:00Z,30.2583,-88.2131,0.0,9.23,29.98,-9999.0,'1111122,1111122,1111122' 
DISL,ioos:station:DISL:KATA:1,2013-04-04T03:30:00Z,30.2583,-88.2131,0.0,8.7,35.65,-9999.0,'1111122,1111122,1111122' 
DISL,ioos:station:DISL:KATA:1,2013-04-04T04:00:00Z,30.2583,-88.2131,0.0,8.96,39.76,-9999.0,'1111122,1111122,1111122' 
DISL,ioos:station:DISL:KATA:1,2013-04-04T04:30:00Z,30.2583,-88.2131,0.0,9.09,45.46,-9999.0,'1111122,1111122,1111122' 
DISL,ioos:station:DISL:KATA:1,2013-04-04T05:00:00Z,30.2583,-88.2131,0.0,8.85,37.99,-9999.0,'1111122,1111122,1111122' 
DISL,ioos:station:DISL:KATA:1,2013-04-04T05:30:00Z,30.2583,-88.2131,0.0,7.8,28.76,-9999.0,'1111122,1111122,1111122' 
DISL,ioos:station:DISL:KATA:1,2013-04-04T06:00:00Z,30.2583,-88.2131,0.0,6.51,25.93,-9999.0,'1111122,1111122,1111122' 
DISL,ioos:station:DISL:KATA:1,2013-04-04T06:30:00Z,30.2583,-88.2131,0.0,6.89,20.22,-9999.0,'1111122,1111122,1111122' 
DISL,ioos:station:DISL:KATA:1,2013-04-04T07:00:00Z,30.2583,-88.2131,0.0,5.74,17.83,-9999.0,'1111122,1111122,1111122' 
DISL,ioos:station:DISL:KATA:1,2013-04-04T07:30:00Z,30.2583,-88.2131,0.0,5.48,22.2,-9999.0,'1111122,1111122,1111122' 
DISL,ioos:station:DISL:KATA:1,2013-04-04T08:00:00Z,30.2583,-88.2131,0.0,4.83,24.41,-9999.0,'1111122,1111122,1111122' 
DISL,ioos:station:DISL:KATA:1,2013-04-04T08:30:00Z,30.2583,-88.2131,0.0,3.92,31.97,-9999.0,'1111122,1111122,1111122' 
DISL,ioos:station:DISL:KATA:1,2013-04-04T09:00:00Z,30.2583,-88.2131,0.0,4.38,42.57,-9999.0,'1111122,1111122,1111122' 
DISL,ioos:station:DISL:KATA:1,2013-04-04T09:30:00Z,30.2583,-88.2131,0.0,3.73,56.37,-9999.0,'1111122,1111122,1111122' 
DISL,ioos:station:DISL:KATA:1,2013-04-04T10:00:00Z,30.2583,-88.2131,0.0,3.36,39.69,-9999.0,'1111122,1111122,1111122' 
DISL,ioos:station:DISL:KATA:1,2013-04-04T10:30:00Z,30.2583,-88.2131,0.0,2.39,14.85,-9999.0,'1111122,1111122,1111122' 
DISL,ioos:station:DISL:KATA:1,2013-04-04T11:00:00Z,30.2583,-88.2131,0.0,2.42,342.5,-9999.0,'1111122,1111122,1111122' 
DISL,ioos:station:DISL:KATA:1,2013-04-04T11:30:00Z,30.2583,-88.2131,0.0,1.78,341.7,-9999.0,'1111122,1111122,1111122' 
DISL,ioos:station:DISL:KATA:1,2013-04-04T12:00:00Z,30.2583,-88.2131,0.0,0.88,357.9,-9999.0,'1111122,1111122,1111122' 
DISL,ioos:station:DISL:KATA:1,2013-04-04T12:30:00Z,30.2583,-88.2131,0.0,3.6,327.9,-9999.0,'1111122,1111122,1111122' 
DISL,ioos:station:DISL:KATA:1,2013-04-04T13:00:00Z,30.2583,-88.2131,0.0,4.08,336.9,-9999.0,'1111122,1111122,1111122' 
DISL,ioos:station:DISL:KATA:1,2013-04-04T13:30:00Z,30.2583,-88.2131,0.0,3.61,326.0,-9999.0,'1111122,1111122,1111122' 
DISL,ioos:station:DISL:KATA:1,2013-04-04T14:00:00Z,30.2583,-88.2131,0.0,4.7,329.4,-9999.0,'1111122,1111122,1111122' 
DISL,ioos:station:DISL:KATA:1,2013-04-04T14:30:00Z,30.2583,-88.2131,0.0,4.79,334.1,-9999.0,'1111122,1111122,1111122' 
DISL,ioos:station:DISL:KATA:1,2013-04-04T15:00:00Z,30.2583,-88.2131,0.0,3.52,333.2,-9999.0,'1111122,1111122,1111122' 
DISL,ioos:station:DISL:KATA:1,2013-04-04T15:30:00Z,30.2583,-88.2131,0.0,2.64,316.3,-9999.0,'1111122,1111122,1111122' 
DISL,ioos:station:DISL:KATA:1,2013-04-04T16:00:00Z,30.2583,-88.2131,0.0,3.58,310.4,-9999.0,'1111122,1111122,1111122' 
DISL,ioos:station:DISL:KATA:1,2013-04-04T16:30:00Z,30.2583,-88.2131,0.0,4.44,292.3,-9999.0,'1111122,1111122,1111122' 
DISL,ioos:station:DISL:KATA:1,2013-04-04T17:00:00Z,30.2583,-88.2131,0.0,4.68,278.9,-9999.0,'1111122,1111122,1111122' 
DISL,ioos:station:DISL:KATA:1,2013-04-04T17:30:00Z,30.2583,-88.2131,0.0,6.32,266.6,-9999.0,'1111122,1111122,1111122' 
DISL,ioos:station:DISL:KATA:1,2013-04-04T18:00:00Z,30.2583,-88.2131,0.0,6.12,263.7,-9999.0,'1111122,1111122,1111122' 
DISL,ioos:station:DISL:KATA:1,2013-04-04T18:30:00Z,30.2583,-88.2131,0.0,7.16,260.0,-9999.0,'1111122,1111122,1111122' 
DISL,ioos:station:DISL:KATA:1,2013-04-04T19:00:00Z,30.2583,-88.2131,0.0,4.98,252.8,-9999.0,'1111122,1111122,1111122' 
DISL,ioos:station:DISL:KATA:1,2013-04-04T19:30:00Z,30.2583,-88.2131,0.0,5.45,244.4,-9999.0,'1111122,1111122,1111122' 
DISL,ioos:station:DISL:KATA:1,2013-04-04T20:00:00Z,30.2583,-88.2131,0.0,7.97,256.6,-9999.0,'1111122,1111122,1111122' 
DISL,ioos:station:DISL:KATA:1,2013-04-04T20:30:00Z,30.2583,-88.2131,0.0,8.33,256.7,-9999.0,'1111122,1111122,1111122' 
DISL,ioos:station:DISL:KATA:1,2013-04-04T21:00:00Z,30.2583,-88.2131,0.0,7.44,255.4,-9999.0,'1111122,1111122,1111122' 
DISL,ioos:station:DISL:KATA:1,2013-04-04T21:30:00Z,30.2583,-88.2131,0.0,7.01,264.7,-9999.0,'1111122,1111122,1111122' 
DISL,ioos:station:DISL:KATA:1,2013-04-04T22:00:00Z,30.2583,-88.2131,0.0,6.89,259.1,-9999.0,'1111122,1111122,1111122' 
DISL,ioos:station:DISL:KATA:1,2013-04-04T22:30:00Z,30.2583,-88.2131,0.0,6.67,257.3,-9999.0,'1111122,1111122,1111122' 
DISL,ioos:station:DISL:KATA:1,2013-04-04T23:00:00Z,30.2583,-88.2131,0.0,7.24,264.9,-9999.0,'1111122,1111122,1111122' 
DISL,ioos:station:DISL:KATA:1,2013-04-04T23:30:00Z,30.2583,-88.2131,0.0,6.95,267.4,-9999.0,'1111122,1111122,1111122' 
DISL,ioos:station:DISL:KATA:1,2013-04-05T00:00:00Z,30.2583,-88.2131,0.0,6.86,290.9,-9999.0,'1111122,1111122,1111122' 
DISL,ioos:station:DISL:KATA:1,2013-04-05T00:30:00Z,30.2583,-88.2131,0.0,8.57,310.5,-9999.0,'1111122,1111122,1111122' 
DISL,ioos:station:DISL:KATA:1,2013-04-05T01:00:00Z,30.2583,-88.2131,0.0,9.9,309.7,-9999.0,'1111122,1111122,1111122' 
DISL,ioos:station:DISL:KATA:1,2013-04-05T01:30:00Z,30.2583,-88.2131,0.0,10.23,316.6,-9999.0,'1111122,1111122,1111122' 
DISL,ioos:station:DISL:KATA:1,2013-04-05T02:00:00Z,30.2583,-88.2131,0.0,9.31,318.2,-9999.0,'1111122,1111122,1111122' 
DISL,ioos:station:DISL:KATA:1,2013-04-05T02:30:00Z,30.2583,-88.2131,0.0,9.71,332.2,-9999.0,'1111122,1111122,1111122' 
DISL,ioos:station:DISL:KATA:1,2013-04-05T03:00:00Z,30.2583,-88.2131,0.0,9.74,321.2,-9999.0,'1111122,1111122,1111122' 
DISL,ioos:station:DISL:KATA:1,2013-04-05T03:30:00Z,30.2583,-88.2131,0.0,9.06,321.2,-9999.0,'1111122,1111122,1111122' 
DISL,ioos:station:DISL:KATA:1,2013-04-05T04:00:00Z,30.2583,-88.2131,0.0,8.18,331.5,-9999.0,'1111122,1111122,1111122' 
DISL,ioos:station:DISL:KATA:1,2013-04-05T04:30:00Z,30.2583,-88.2131,0.0,9.23,327.1,-9999.0,'1111122,1111122,1111122' 